Regional Weather Roundup
Issued by NWS

Home | Current Version | Previous Version | Graphics & Text | Print | Product List | Glossary On
Versions: 1 2 3 4 5 6 7 8 9 10 11 12 13 14 15 16 17 18 19 20 21 22 23 24 25 26 27 28 29 30 31 32 33 34 35 36 37 38 39 40 41 42 43 44 45 46 47 48 49 50
000
ASUS43 KMKX 290621
RWRWI

WISCONSIN REGIONAL WEATHER ROUNDUP
NATIONAL WEATHER SERVICE MILWAUKEE/SULLIVAN WI
100 AM CDT FRI MAY 29 2015

NOTE: "FAIR" INDICATES FEW OR NO CLOUDS BELOW 12,000 FEET WITH NO
SIGNIFICANT WEATHER AND/OR OBSTRUCTIONS TO VISIBILITY.

WIZ001-002-006>008-014>016-023>028-290700-
NORTHWEST WISCONSIN

CITY           SKY/WX    TMP DP  RH WIND       PRES   REMARKS
SUPERIOR ARPT  CLOUDY    41  40  97 CALM      29.93F
6HR MIN TEMP:  40; 6HR MAX TEMP:  41;

ASHLAND        MOCLDY    45  45 100 CALM      29.94F
6HR MIN TEMP:  45; 6HR MAX TEMP:  55;

HAYWARD        MOCLDY    68  54  60 S10       29.95F
6HR MIN TEMP:  68; 6HR MAX TEMP:  79;

SIREN          PTCLDY    67  54  62 S7        29.92F
6HR MIN TEMP:  66; 6HR MAX TEMP:  80;

CUMBERLAND     CLOUDY    63  54  72 SE10      29.95F
RICE LAKE      CLOUDY    66  55  66 SE8       29.97F
6HR MIN TEMP:  65; 6HR MAX TEMP:  80;

CHETEK         CLOUDY    65  57  74 MISG      29.97S
6HR MIN TEMP:  65; 6HR MAX TEMP:  76;

LADYSMITH      MOCLDY    64  55  72 SE6       30.00F
6HR MIN TEMP:  63; 6HR MAX TEMP:  77;

EAU CLAIRE     LGT RAIN  67  57  70 S6        29.98R
6HR MIN TEMP:  67; 6HR MAX TEMP:  79; 6HR PCP: TRACE;

MENOMONIE      LGT RAIN  66  58  77 SE6       29.98R
6HR MIN TEMP:  66; 6HR MAX TEMP:  78;

NEW RICHMOND   MOCLDY    66  55  66 SE6       29.94F
6HR MIN TEMP:  65; 6HR MAX TEMP:  76;

OSCEOLA        PTCLDY    67  55  66 SE9       29.95F
6HR MIN TEMP:  65; 6HR MAX TEMP:  79;

$$

WIZ003>005-009-010-017-018-290700-
NORTH CENTRAL WISCONSIN

CITY           SKY/WX    TMP DP  RH WIND       PRES   REMARKS
MANITOWISH WTR MOCLDY    62  55  76 S6        30.01F
6HR MIN TEMP:  62; 6HR MAX TEMP:  77;

ARBOR VITAE    MOCLDY    64  56  73 S5        30.02F
6HR MIN TEMP:  64; 6HR MAX TEMP:  78;

WOODRUFF       MOCLDY    64  56  73 S5        30.02F
6HR MIN TEMP:  64; 6HR MAX TEMP:  78;

RHINELANDER    MOCLDY    62  54  74 CALM      30.04F
6HR MIN TEMP:  61; 6HR MAX TEMP:  77;

EAGLE RIVER    CLOUDY    62  52  70 S3        30.03F
6HR MIN TEMP:  62; 6HR MAX TEMP:  77;

LAND O LAKES   MOCLDY    64  54  71 S3        30.03F
6HR MIN TEMP:  64; 6HR MAX TEMP:  79;

PHILLIPS       PTCLDY    64  55  71 S7        30.00F
6HR MIN TEMP:  64; 6HR MAX TEMP:  77;

TOMAHAWK       MOCLDY    57  54  91 CALM      30.04S
6HR MIN TEMP:  57; 6HR MAX TEMP:  76;

MEDFORD        CLOUDY    62  54  76 SE3       30.02F
6HR MIN TEMP:  61; 6HR MAX TEMP:  74;

MERRILL        CLOUDY    61  55  81 CALM      30.04F
$$

WIZ029-030-035-036-043>047-290700-
CENTRAL WISCONSIN

CITY           SKY/WX    TMP DP  RH WIND       PRES   REMARKS
WAUSAU         CLOUDY    64  55  72 SE7       30.02F
6HR MIN TEMP:  63; 6HR MAX TEMP:  77;

MOSINEE        CLOUDY    63  55  77 SE6       30.04S
MARSHFIELD     CLOUDY    66  54  65 SE5       30.01F
6HR MIN TEMP:  65; 6HR MAX TEMP:  77;

STEVENS POINT  CLOUDY    65  54  66 S8        30.03F
6HR MIN TEMP:  64; 6HR MAX TEMP:  77;

WAUPACA        CLOUDY    67  54  62 S3        30.04S
6HR MIN TEMP:  67; 6HR MAX TEMP:  80;

WAUTOMA        CLOUDY    68  56  65 S6        30.04S
6HR MIN TEMP:  65; 6HR MAX TEMP:  81;

WISC RAPIDS    CLOUDY    67  54  63 S3        30.03F
6HR MIN TEMP:  66; 6HR MAX TEMP:  79;

CAMP DOUGLAS   CLOUDY    65  61  86 SE3       30.00
6HR MIN TEMP:  58; 6HR MAX TEMP:  77;

$$

WIZ011>013-019>022-031-037>040-048>050-290700-
NORTHEAST WISCONSIN

CITY           SKY/WX    TMP DP  RH WIND       PRES   REMARKS
ANTIGO         CLOUDY    60  56  86 S9        30.06S
SHAWANO        CLOUDY    66  54  63 CALM      30.05F
6HR MIN TEMP:  66; 6HR MAX TEMP:  80;

OCONTO         MOCLDY    63  56  76 S3        30.05F
6HR MIN TEMP:  63; 6HR MAX TEMP:  75;

STURGEON BAY   MOCLDY    63  52  67 S10       30.09F
6HR MIN TEMP:  63; 6HR MAX TEMP:  70;

GREEN BAY      CLOUDY    66  55  67 S5        30.06S
6HR MIN TEMP:  66; 6HR MAX TEMP:  78;

MANITOWOC      MOCLDY    56  53  90 S8        30.08S
6HR MIN TEMP:  52; 6HR MAX TEMP:  68;

APPLETON       CLOUDY    66  52  59 S12       30.06S
CLINTONVILLE   CLOUDY    64  54  68 CALM      30.04F
OSHKOSH        CLOUDY    65  54  67 S7        30.04F
6HR MIN TEMP:  62; 6HR MAX TEMP:  77;

$$

WIZ032>034-041-042-053>061-290700-
SOUTHWEST WISCONSIN

CITY           SKY/WX    TMP DP  RH WIND       PRES   REMARKS
LA CROSSE      LGT RAIN  70  59  68 S3        29.97S
6HR MIN TEMP:  70; 6HR MAX TEMP:  81; 6HR PCP: TRACE;

SPARTA         LGT RAIN  64  56  77 CALM      30.00F
6HR MIN TEMP:  61; 6HR MAX TEMP:  78;

VIROQUA        CLOUDY    67  53  61 SE6       30.01F
6HR MIN TEMP:  67; 6HR MAX TEMP:  77;

BOSCOBEL       LGT RAIN  62  58  86 CALM      30.00F
6HR MIN TEMP:  60; 6HR MAX TEMP:  80; 6HR PCP: TRACE;

PRAIRIE DU CHI DRIZZLE   67  54  62 CALM      30.00S
6HR MIN TEMP:  66; 6HR MAX TEMP:  79;

PLATTEVILLE    CLOUDY    67  55  65 SE6       30.02S
6HR MIN TEMP:  67; 6HR MAX TEMP:  79;

$$

WIZ056-057-062-063-064-067-068-290700-
SOUTH CENTRAL WISCONSIN

CITY           SKY/WX    TMP DP  RH WIND       PRES   REMARKS
REEDSBURG      CLOUDY    68  56  67 CALM      30.02S
6HR MIN TEMP:  64; 6HR MAX TEMP:  78;

BARABOO/DELLS  CLOUDY    67  55  64 SE8       30.03S
6HR MIN TEMP:  65; 6HR MAX TEMP:  77;

LONE ROCK      CLOUDY    65  57  75 E7        30.01F
6HR MIN TEMP:  65; 6HR MAX TEMP:  78;

MINERAL POINT  CLOUDY    68  50  52 SE6       30.03S
MADISON        CLOUDY    68  54  60 SE7       30.03S
6HR MIN TEMP:  68; 6HR MAX TEMP:  80;

MIDDLETON      CLOUDY    69  54  59 CALM      30.04S
6HR MIN TEMP:  69; 6HR MAX TEMP:  81;

WATERTOWN      CLOUDY   N/A N/A N/A SE6       30.05S
MONROE         CLOUDY    64  54  68 SE7       30.03F
JANESVILLE     MOCLDY    64  54  68 SE6       30.03F
$$

WIZ051-052-058>065-066-070>072-290700-
SOUTHEAST WISCONSIN

CITY           SKY/WX    TMP DP  RH WIND       PRES   REMARKS
MILWAUKEE      CLOUDY    61  53  75 SE3       30.07F
6HR MIN TEMP:  60; 6HR MAX TEMP:  72;

WAUKESHA       CLOUDY    63  52  67 SE6       30.08F
MILWAUKEE/TIMM CLOUDY    64  52  63 CALM      30.08F
RACINE         CLOUDY    62  52  69 SE6       30.09S
6HR MIN TEMP:  60; 6HR MAX TEMP:  71;

BURLINGTON     MOCLDY    57  53  85 CALM      30.07S
6HR MIN TEMP:  57; 6HR MAX TEMP:  75;

KENOSHA        MOCLDY    61  53  75 SE6       30.07F
6HR MIN TEMP:  60; 6HR MAX TEMP:  73;

FOND DU LAC    CLOUDY    67  54  63 S10       30.05F
6HR MIN TEMP:  63; 6HR MAX TEMP:  79;

SHEBOYGAN      MOCLDY    59  53  80 S5        30.08S
6HR MIN TEMP:  57; 6HR MAX TEMP:  72;

WEST BEND      CLOUDY    63  52  67 SE3       30.08S
JUNEAU         CLOUDY    65  55  68 SE8       30.06F
6HR MIN TEMP:  64; 6HR MAX TEMP:  78;

$$

LSZ147-162-290700-
LAKE SUPERIOR

STATION/POSITION TIME  TEMP    WIND        PRES    WAVE
                       AIR SEA DIR/SP/G            HT/PER
                 (UTC) (F)     (DEG/KT/KT) (MB)    (FT/S)
W MID LAKE BUOY  0550   38 37  160/  4/  6   N/A     2/ 4
DEVILS ISLAND    0600   41      20/  2/  3   N/A
PORT WING        0500   40     200/  3/  4   N/A
SAXON HARBOR     0500   45        CALM       N/A
$$

LMZ867-665-643>646-290700-
LAKE MICHIGAN

STATION/POSITION TIME  TEMP    WIND        PRES    WAVE
                       AIR SEA DIR/SP/G            HT/PER
                 (UTC) (F)     (DEG/KT/KT) (MB)    (FT/S)
CHAMBERS ISLAND  0500   67     160/  6/ 13   N/A



USA.gov is the U.S. government's official web portal to all federal, state and local government web resources and services.